User: anonymous   Login
Location: Unspecified
(0.0000°N, 0.0000°E)
Time: 00:52:20
(UTC+00:00)
Language:

STARLINK-34420 - Orbit

View from above orbital plane
View from above orbital plane
View from above satellite
View from above satellite

Ground track
Ground track

The orbit is defined by the following mean orbital elements,

1 64483U          26145.23554990 +.00000000 +00000-0 +45985-3 0 00007
2 64483  53.1574 120.8441 0001230  93.0153 267.0988 15.30166373    04
Epoch (UTC): 25 May 2026 05:39:11
Eccentricity: 0.0001230
inclination: 53.1574°
perigee height: 474 km
apogee height: 476 km
right ascension of ascending node: 120.8441°
argument of perigee: 93.0153°
revolutions per day: 15.30166373
mean anomaly at epoch: 267.0988°

The dashed part of the orbit path shows where the satellite is in the earth's shadow,  

DLR